Regional Weather Roundup
Issued by NWS

Home | Current Version | Previous Version | Graphics & Text | Print | Product List | Glossary On
Versions: 1 2 3 4 5 6 7 8 9 10 11 12 13 14 15 16 17 18 19 20 21 22 23 24 25 26 27 28 29 30 31 32 33 34 35 36 37 38 39 40 41 42 43 44 45 46 47 48 49 50
001
ASUS43 KTOP 161408
RWRKS

WEATHER ROUNDUP FOR KANSAS
NATIONAL WEATHER SERVICE GOODLAND KS
800 AM CST SAT DEC 16 2017

NOTE:  "FAIR" INDICATES FEW OR NO CLOUDS BELOW 12,000 FEET WITH NO
SIGNIFICANT WEATHER AND/OR OBSTRUCTIONS TO VISIBILITY.

KSZ001>006-013>018-027>032-041>047-161500-
NORTHWEST KANSAS

CITY           SKY/WX    TMP DP  RH WIND       PRES   REMARKS
GOODLAND       CLOUDY    28  11  48 NW7       29.73S
HAYS           CLOUDY    24  16  71 SW5       29.78R
HILL CITY      CLEAR     24  13  62 W3        29.75S
RUSSELL        CLOUDY    23  18  81 S8        29.76R
$$

KSZ061>065-074>080-084>089-161500-
SOUTHWEST KANSAS

CITY           SKY/WX    TMP DP  RH WIND       PRES   REMARKS
DODGE CITY     CLOUDY    29  19  66 S14       29.78S WCI  18
ELKHART        CLOUDY    33  19  56 SW13      29.73S WCI  24
GARDEN CITY    CLOUDY    21  14  74 S8        29.74S
GREAT BEND     CLOUDY    30  21  69 SW9       29.79R
LIBERAL        CLOUDY    27  20  75 S12       29.77F WCI  17
PRATT          CLOUDY    31  21  67 S14       29.83R WCI  20
$$

KSZ066>073-081>083-090>101-161500-
SOUTHEAST KANSAS

CITY           SKY/WX    TMP DP  RH WIND       PRES   REMARKS
CHANUTE        CLEAR     37  24  59 S16       29.96R WCI  28
COFFEYVILLE    CLEAR     38  24  57 S15       30.00R WCI  29
HUTCHINSON     CLEAR     30  23  75 S8        29.84S
MEDICINE LODGE   N/A     30  22  72 S10       29.87R WCI  21
NEWTON         CLOUDY    35  24  64 S20       29.86  WCI  24
PARSONS        CLEAR     37  25  61 S9        29.99R
WICHITA INTL   CLOUDY    34  26  72 S15       29.89R WCI  24
WICHITA JABRA  CLOUDY    35  26  69 S12       29.89R WCI  27
WICHITA MCCONL CLOUDY    34  24  66 SW14      29.89S WCI  25
WINFIELD       CLEAR     38  26  62 S12       29.95R WCI  30
$$

KSZ007>012-019>026-033>040-048>060-102>105-161500-
NORTHEAST KANSAS

CITY           SKY/WX    TMP DP  RH WIND       PRES   REMARKS
CONCORDIA      CLOUDY    30  21  69 S7        29.78R
EMPORIA        CLOUDY    30  23  75 S14       29.88R WCI  19
LAWRENCE       PTCLDY    34  25  69 E3        29.88R
MANHATTAN      CLOUDY    32  23  69 SW8       29.84R
MARYSVILLE     CLOUDY    32  25  74 S7        29.80S
OLATHE IND     CLEAR     37  25  61 S7        29.90R
OLATHE EXE     CLEAR     34  24  67 S12       29.89R WCI  25
SALINA         PTCLDY    32  23  69 S5        29.83R
TOPEKA BILLARD CLOUDY   N/A N/A N/A SW8       29.86R
TOPEKA FORBES  CLOUDY    36  26  67 S16       29.84S WCI  26
$$




USA.gov is the U.S. government's official web portal to all federal, state and local government web resources and services.